TimeEDT,TemperatureF,Dew PointF,Humidity,Sea Level PressureIn,VisibilityMPH,Wind Direction,Wind SpeedMPH,Gust SpeedMPH,PrecipitationIn,Events,Conditions,WindDirDegrees,DateUTC
12:53 AM,68.0,64.9,90,30.01,10.0,East,3.5,-,N/A,,Clear,100,2013-05-21 04:53:00
1:53 AM,69.1,66.0,90,29.99,10.0,East,3.5,-,N/A,,Clear,90,2013-05-21 05:53:00
2:53 AM,69.1,66.9,93,29.98,10.0,ENE,3.5,-,N/A,,Clear,60,2013-05-21 06:53:00
3:53 AM,69.1,66.9,93,29.97,10.0,ENE,5.8,-,N/A,,Clear,60,2013-05-21 07:53:00
4:14 AM,69.8,66.2,88,29.97,10.0,East,4.6,-,N/A,,Partly Cloudy,80,2013-05-21 08:14:00
4:28 AM,68.0,66.2,94,29.97,2.5,East,5.8,-,N/A,,Mostly Cloudy,80,2013-05-21 08:28:00
4:49 AM,68.0,66.2,94,29.97,4.0,East,4.6,-,N/A,,Mostly Cloudy,90,2013-05-21 08:49:00
4:53 AM,68.0,66.9,96,29.97,6.0,East,3.5,-,N/A,,Mostly Cloudy,90,2013-05-21 08:53:00
5:04 AM,68.0,66.2,94,29.97,8.0,East,4.6,-,N/A,,Scattered Clouds,80,2013-05-21 09:04:00
5:53 AM,68.0,66.9,96,29.97,9.0,East,4.6,-,N/A,,Clear,100,2013-05-21 09:53:00
6:53 AM,69.1,66.9,93,29.98,10.0,East,4.6,-,N/A,,Clear,100,2013-05-21 10:53:00
7:53 AM,71.1,68.0,90,29.99,10.0,ESE,8.1,-,N/A,,Clear,120,2013-05-21 11:53:00
8:53 AM,75.9,68.0,76,30.01,10.0,ESE,8.1,-,N/A,,Clear,120,2013-05-21 12:53:00
9:53 AM,79.0,68.0,69,30.02,10.0,SE,6.9,-,N/A,,Mostly Cloudy,140,2013-05-21 13:53:00
10:26 AM,82.4,69.8,66,30.02,10.0,ENE,6.9,-,N/A,,Scattered Clouds,70,2013-05-21 14:26:00
10:53 AM,82.9,68.0,60,30.03,10.0,Variable,4.6,-,N/A,,Clear,0,2013-05-21 14:53:00
11:53 AM,81.0,68.0,65,30.02,10.0,WSW,8.1,-,N/A,,Scattered Clouds,250,2013-05-21 15:53:00
12:39 PM,75.2,66.2,73,30.01,10.0,South,10.4,-,0.00,,Overcast,170,2013-05-21 16:39:00
12:53 PM,80.1,63.0,56,30.00,10.0,South,8.1,-,0.00,,Mostly Cloudy,170,2013-05-21 16:53:00
1:53 PM,84.0,66.9,56,29.98,10.0,SW,4.6,-,N/A,,Mostly Cloudy,230,2013-05-21 17:53:00
2:53 PM,84.9,69.1,59,29.95,10.0,West,9.2,-,N/A,,Clear,270,2013-05-21 18:53:00
3:53 PM,84.9,69.1,59,29.93,10.0,West,11.5,-,N/A,,Clear,260,2013-05-21 19:53:00
4:53 PM,84.9,69.1,59,29.92,10.0,WNW,9.2,-,N/A,,Clear,290,2013-05-21 20:53:00
5:53 PM,79.0,66.0,64,29.94,10.0,NE,9.2,-,N/A,,Overcast,50,2013-05-21 21:53:00
6:14 PM,73.4,69.8,88,29.95,2.5,East,5.8,-,0.10,Rain,Rain,80,2013-05-21 22:14:00
6:24 PM,75.2,69.8,83,29.95,6.0,East,6.9,-,0.11,Rain,Light Rain,90,2013-05-21 22:24:00
6:53 PM,77.0,71.1,82,29.95,10.0,ESE,5.8,-,0.11,,Overcast,110,2013-05-21 22:53:00
7:53 PM,77.0,70.0,79,29.95,10.0,East,9.2,-,N/A,,Clear,100,2013-05-21 23:53:00
8:39 PM,75.2,69.8,83,29.95,10.0,SE,3.5,-,N/A,,Partly Cloudy,130,2013-05-22 00:39:00
8:53 PM,73.9,70.0,87,29.95,10.0,SE,6.9,-,N/A,,Clear,130,2013-05-22 00:53:00
9:53 PM,72.0,69.1,91,29.95,10.0,SE,5.8,-,N/A,,Clear,130,2013-05-22 01:53:00
10:11 PM,71.6,69.8,94,29.95,10.0,East,5.8,-,N/A,,Partly Cloudy,100,2013-05-22 02:11:00
10:53 PM,71.1,68.0,90,29.95,10.0,East,3.5,-,N/A,,Clear,100,2013-05-22 02:53:00
11:53 PM,71.1,68.0,90,29.95,10.0,East,5.8,-,N/A,,Clear,100,2013-05-22 03:53:00